Location: Springfield
(37.2150°N, 93.2980°W)
Time: 07:57:09
(UTC-05:00)

Envisat - Visible Passes

Search period start: 22 July 2018 00:00
Search period end: 01 August 2018 00:00
Orbit: 764 x 766 km, 98.2° (Epoch: 22 July)

Date Brightness Start Highest point End Pass type
(mag) Time Alt. Az. Time Alt. Az. Time Alt. Az.
23 Jul 5.6 21:37:15 10° SW 21:40:40 18° W 21:44:07 10° NW visible
24 Jul 4.3 20:58:56 10° S 21:03:42 42° W 21:08:31 10° NNW visible
26 Jul 5.3 21:25:26 10° SSW 21:29:25 23° W 21:33:26 10° NW visible
27 Jul 3.8 20:47:34 10° S 20:52:31 54° W 20:57:30 10° NNW visible
28 Jul 5.8 21:53:06 10° WSW 21:55:13 12° W 21:57:21 10° WNW visible
29 Jul 4.9 21:13:47 10° SSW 21:18:11 29° W 21:22:36 10° NW visible
31 Jul 5.6 21:40:49 10° SW 21:43:56 16° W 21:47:06 10° NW visible
